User: anonymous   Login
Location: Caltech
(34.1382°N, 118.1253°W)
Time: 14:55:33
(UTC-07:00)
Language:

ALOS - Orbit

View from above orbital plane
View from above orbital plane
View from above satellite
View from above satellite

Ground track
Ground track

The orbit data is extracted from the following two-line orbital elements,

1 28931U 06002A   15188.53878812  .00000602  00000-0  12927-3 0  9998
2 28931 097.9294 237.1277 0002326 070.8580 289.2877 14.61909385503619
Epoch (UTC): 07 July 2015 12:55:51
Eccentricity: 0.0002326
inclination: 97.9294°
perigee height: 685 km
apogee height: 688 km
right ascension of ascending node: 237.1277°
argument of perigee: 70.8580°
revolutions per day: 14.61909385
mean anomaly at epoch: 289.2877°
orbit number at epoch: 50361

The dashed part of the orbit path shows where the satellite is in the earth's shadow,  

DLR